This is the latest recevied weather packets stored in our database for station/object DL9GRB-13. If no packets are shown the sender has not sent any weather packets the latest 10 day(s).
| Time | Temp. | Humidity | Pressure | Rain* | Wind** | Luminosity | Snow |
|---|---|---|---|---|---|---|---|
| 1777233725 | 5° C | 67% | 1022.8 hPa | 0 mm | - | 0 W/m² | - |
| 1777233545 | 5° C | 67% | 1023.1 hPa | 0 mm | - | 0 W/m² | - |
| 1777233365 | 5° C | 65% | 1023.1 hPa | 0 mm | - | 0 W/m² | - |
| 1777233185 | 5° C | 65% | 1023.3 hPa | 0 mm | - | 0 W/m² | - |
| 1777233005 | 5.56° C | 65% | 1023.2 hPa | 0 mm | - | 0 W/m² | - |
| 1777232825 | 5.56° C | 65% | 1023.2 hPa | 0 mm | - | 0 W/m² | - |
| 1777232645 | 5.56° C | 65% | 1023.2 hPa | 0 mm | - | 0 W/m² | - |
| 1777232465 | 5.56° C | 64% | 1023.4 hPa | 0 mm | - | 0 W/m² | - |
| 1777232285 | 5.56° C | 62% | 1023 hPa | 0 mm | - | 0 W/m² | - |
| 1777232105 | 5.56° C | 62% | 1023.1 hPa | 0 mm | - | 0 W/m² | - |
| 1777231925 | 5.56° C | 62% | 1023.1 hPa | 0 mm | - | 0 W/m² | - |
| 1777231745 | 6.11° C | 61% | 1023.2 hPa | 0 mm | - | 0 W/m² | - |
| 1777231565 | 6.11° C | 60% | 1023.1 hPa | 0 mm | - | 0 W/m² | - |
| 1777231385 | 6.11° C | 59% | 1023.2 hPa | 0 mm | - | 0 W/m² | - |
| 1777231205 | 6.67° C | 58% | 1023.3 hPa | 0 mm | - | 0 W/m² | - |
| 1777231025 | 6.67° C | 59% | 1023 hPa | 0 mm | - | 0 W/m² | - |
| 1777230845 | 6.67° C | 58% | 1023.1 hPa | 0 mm | - | 0 W/m² | - |
| 1777230665 | 6.67° C | 55% | 1023 hPa | 0 mm | - | 0 W/m² | - |
| 1777230485 | 7.22° C | 55% | 1023.3 hPa | 0 mm | - | 0 W/m² | - |
| 1777230305 | 7.22° C | 55% | 1023.2 hPa | 0 mm | - | 0 W/m² | - |
| 1777230125 | 7.22° C | 55% | 1023.3 hPa | 0 mm | - | 0 W/m² | - |
| 1777229945 | 7.78° C | 50% | 1023.2 hPa | 0 mm | - | 0 W/m² | - |
| 1777229765 | 7.78° C | 50% | 1023.2 hPa | 0 mm | - | 0 W/m² | - |
| 1777229585 | 7.78° C | 49% | 1023 hPa | 0 mm | - | 0 W/m² | - |
| 1777229405 | 8.33° C | 48% | 1023.2 hPa | 0 mm | - | 1 W/m² | - |
* Rain latest hour (hover to see other rain measurements)
** Current wind speed in m/s (hover to see current wind gust speed)